Location: Rounton
(54.4000°N, 1.3500°W)
Time: 09:28:34
(UTC+01:00)

A-11 Canister half - Pass Details

Date: 30 June 2022
Orbit: 1525 x 1683 km, 47.3° (Epoch: 10 August)

Event Time Altitude Azimuth Distance (km) Brightness Sun altitude
Rises 01:12:21 0° 284° (WNW) 4,691 11.7 -12.4°
Reaches altitude 10° 01:16:28 10° 268° (W) 3,697 11.0 -12.4°
Maximum altitude 01:22:29 20° 227° (SW) 3,003 10.1 -12.4°
Enters shadow 01:26:40 14° 196° (SSW) 3,357 10.1 -12.3°
